User: anonymous   Login
Location: Wells
(51.2093°N, 2.6446°W)
Time: 23:25:11
(UTC+00:00)
Language:

SO-50 - Orbit

View from above orbital plane
View from above orbital plane
View from above satellite
View from above satellite

Ground track
Ground track

The orbit is defined by the following mean orbital elements,

1 27607U          26065.44752583 +.00000000 +00000-0 +30257-3 0 00002
2 27607  64.5519  86.7998 0075186 281.2996  77.9668 14.82767672    08
Epoch (UTC): 06 March 2026 10:44:26
Eccentricity: 0.0075186
inclination: 64.5519°
perigee height: 568 km
apogee height: 673 km
right ascension of ascending node: 86.7998°
argument of perigee: 281.2996°
revolutions per day: 14.82767672
mean anomaly at epoch: 77.9668°

The dashed part of the orbit path shows where the satellite is in the earth's shadow,  

DLR